星链-5524 (STARLINK-5524 )

导读

STARLINK-5524是美国太空探索技术公司(SpaceX)星链(Starlink)星座中的卫星,于2023年5月10日发射。星链项目旨在构建全球卫星互联网星座,为全球偏远地区等提供宽带互联网服务,这颗卫星加入星座后,进一步扩充了星链网络的覆盖能力与服务容量。

Basic Information
目录编号:
56474
目录名称:
STARLINK-5524
国际标识:
2023-064AC
轨道中心:
EARTH
卫星名称:
星链-5524
卫星全名:
星链-5524 (STARLINK-5524 )
卫星状态:
在轨 (已飞行1214 天)
发射日期:
2023-05-10 UTC
国别 :
美国 (US)
星等 :
--
Orbit Information
数据来源 国际轨道数据
星历时间: 2026-09-05T03:08:42+0800
7小时前
查看轨道信息
半长轴: 6950.192km
偏心率: 0.0002942
轨道倾角: 70.001°
近地点辐角 265.809°
升交点赤经 33.035°
平近点角 94.273°
近地点: 570.01km
远地点: 574.1km
周期: 96.107分钟
每日圈数: 14.983305
Detailed Information
固有亮度:
5
最大亮度:
2.5
卫星平台:
Starlink v1.5
覆盖范围:
全球
运营商:
太空探索技术公司
运营商所在国:
美国
制造商(研发单位):
太空探索技术公司
制造商所在国:
美国
使用方式:
暂无
Satellite Introduction
星链(Starlink)计划是由太空探索技术公司(SpaceX)提出的一个巨型低轨卫星互联网星座项目,计划在2019年至2024年间在太空搭建由约1.2万颗卫星组成的“星链”网络,其中1584颗将部署在地球上空550千米处的近地轨道,并从2020年开始工作。该卫星仍在工作。
2D Orbit Map
3D Orbit Map
Orbit Altitude Analysis Chart
Orbit Inclination Analysis Chart
Orbit Comprehensive Analysis Chart
View Comprehensive Chart
Conjunction Data List
Event ID Objects TCA Miss Dist (km) Collision Risk Probability Collision Risk Index (CRI) Action
CDM_260907-052302-849605-647421
ESSAIM-3 (28496)
2026-09-07T
05:23:06+0000
2.524 km
极远距离
1.735948E-6 低风险 0.4
CDM_260905-113505-566205-647423
2026-09-05T
11:35:57+0000
2.987 km
极远距离
7.280897E-7 极低风险 0.32